Location: ??
(35.4824°N, 139.4679°E)
Time: 20:14:49
(UTC+00:00)

Abrixas rocket - Pass Details

Date: 29 October 2020
Orbit: 323 x 325 km, 48.4° (Epoch: 24 November)

Event Time Altitude Azimuth Distance (km) Brightness Sun altitude
Exits shadow 20:10:31 14° 315° (NW) 1,060 3.8 -11.0°
Maximum altitude 20:12:48 63° 35° (NE) 381 2.1 -10.6°
Drops below altitude 10° 20:15:39 10° 118° (ESE) 1,278 6.0 -10.0°
Sets 20:17:39 0° 122° (ESE) 2,114 7.3 -9.6°
